#timestamp,LO_Frequency,Hit,StdDev 
1568678415.7,286047009.1,Y
1568678435.6,286047007.4,P
1568678455.4,286047007.1,N
1568678475.2,286047005.3,N
1568678495.1,286047003.1,N
1568678496.0,286047003.1,N
1568678515.8,286047003.1,N
1568678535.6,286047004.2,N
1568678555.5,286047000.7,N
1568678575.3,286046998.6,N
1568678595.2,286047000.8,N
1568678615.9,286047001.0,N
1568678635.7,286047002.0,N
1568678655.6,286047002.8,N
1568678675.4,286047000.5,N
1568678695.2,286047000.0,N
1568678715.1,286047000.3,N
1568678716.0,286047000.3,N
1568678735.8,286046999.0,N
1568678755.7,286046998.4,N
1568678775.5,286047001.2,N
1568678795.3,286047000.4,N
1568678815.2,286046998.3,N
1568678835.0,286046998.7,N
1568678835.9,286046998.7,N
1568678855.8,286046996.9,N
1568678875.6,286046996.6,N
1568678895.4,286046996.9,N
1568678915.3,286046999.2,N
1568678935.1,286046998.4,N
1568678955.8,286046997.7,N
1568678975.7,286046995.3,N
1568678995.5,286046996.5,N
1568679015.4,286046999.4,N
1568679035.2,286046999.3,N
1568679055.0,286046995.5,N
1568679055.9,286046995.5,N
1568679075.8,286046994.3,N
1568679095.6,286046993.7,Y
1568679115.5,286046996.4,P
1568679135.3,286046996.0,P
1568679155.1,286046997.4,N
1568679175.9,286046999.5,N
1568679195.7,286046998.9,N
1568679215.5,286046999.1,N
1568679235.4,286046997.5,N
1568679255.2,286046995.4,Y
1568679275.1,286046996.9,P
1568679276.0,286046996.9,P
1568679295.8,286046996.8,P
1568679315.6,286046998.7,N
1568679335.5,286046998.4,N
1568679355.3,286047000.7,N
1568679375.2,286047001.5,N
1568679395.9,286047002.2,N
1568679415.7,286047002.5,N
1568679435.6,286047001.2,N
1568679455.4,286046998.4,N
1568679475.2,286047000.7,N
1568679495.1,286046998.9,N
1568679496.0,286046998.9,N
1568679515.8,286046998.5,N
1568679535.7,286046999.9,N
1568679555.5,286046998.2,N
1568679575.3,286046998.5,N
1568679595.2,286046998.8,N
1568679615.0,286046998.1,N
1568679615.9,286046998.1,N
1568679635.7,286046999.0,N
1568679655.6,286047001.0,N
1568679675.4,286046999.1,N
1568679695.3,286047002.4,N
1568679715.1,286047000.4,N
1568679735.8,286046998.1,N
1568679755.7,286046998.7,N
1568679775.5,286046998.1,N
1568679795.4,286047000.5,N
1568679815.2,286046999.9,N
1568679835.0,286047002.0,N
1568679835.9,286047002.0,N
1568679855.8,286046998.5,N
1568679875.6,286047001.2,N
1568679895.4,286046994.9,Y
1568679915.3,286046995.2,P
1568679935.1,286046995.2,N
1568679955.9,286046997.5,N
1568679975.7,286046996.7,N
1568679995.5,286046999.5,N
1568680015.4,286046998.7,N
1568680035.2,286046999.3,N
1568680055.0,286046997.6,N
1568680055.9,286046997.6,N
1568680075.8,286046997.7,N
1568680095.6,286046996.6,N
1568680115.5,286046997.3,N
1568680135.3,286046995.2,Y
1568680155.1,286046996.6,P
1568680175.9,286046997.5,P
1568680195.7,286046997.5,P
1568680215.6,286046997.4,Y
1568680235.4,286047002.5,P
1568680255.2,286047002.6,N
1568680275.1,286047005.9,N
1568680276.0,286047005.9,N
1568680295.8,286047002.6,N
1568680315.6,286047002.3,N
1568680335.5,286047002.8,N
1568680355.3,286047002.4,N
1568680375.2,286047003.9,N
1568680395.9,286047002.6,N
1568680415.7,286047002.2,N
1568680435.6,286047002.8,N
1568680455.4,286047000.5,N
1568680475.2,286047002.6,N
1568680495.1,286047004.4,N
1568680496.0,286047004.4,N
1568680515.8,286047004.4,N
1568680535.7,286046999.8,N
1568680555.5,286047000.3,N
1568680575.3,286047002.8,N
1568680595.2,286047001.1,N
1568680615.0,286047002.8,N
1568680615.9,286047002.8,N
1568680635.8,286047002.7,N
1568680655.6,286047002.6,N
1568680675.4,286047002.5,N
1568680695.3,286047004.1,N
1568680715.1,286047004.1,N
1568680735.8,286047005.0,N
1568680755.7,286047005.5,Y
1568680775.5,286047001.5,P
1568680795.4,286047001.5,N
1568680815.2,286047003.4,P
1568680835.0,286047005.2,Y
1568680835.9,286047005.2,P
1568680855.8,286047000.1,N
1568680875.6,286046999.8,N
1568680895.4,286047002.0,N
1568680915.3,286047002.4,N
1568680935.1,286047001.7,N
1568680955.9,286047005.6,Y
1568680975.7,286047006.8,P
1568680995.5,286047006.1,N
1568681015.4,286047005.5,N
1568681035.2,286047002.0,N
1568681055.0,286047002.1,N
1568681056.0,286047002.1,N
1568681075.8,286047003.1,N
1568681095.6,286047005.1,N
1568681115.5,286047004.9,N
1568681135.3,286047004.7,N
1568681155.1,286047005.8,Y
1568681175.9,286046998.1,P
1568681195.7,286047000.0,N
1568681215.6,286047000.8,N
1568681235.4,286046997.3,N
1568681255.2,286046997.6,N
1568681275.1,286046996.9,N
1568681276.0,286046996.9,N
1568681295.8,286046998.9,N
1568681315.6,286046997.7,N
1568681335.5,286046997.1,N
1568681355.3,286046998.3,N
1568681375.2,286047000.4,N
1568681395.9,286046999.2,N
1568681415.7,286046997.2,N
1568681435.6,286047000.5,N
1568681455.4,286046998.1,N
1568681475.2,286047000.9,N
1568681495.1,286046999.1,N
1568681496.0,286046999.1,N
1568681515.8,286046999.4,N
1568681535.7,286046997.8,N
1568681555.5,286046995.0,N
1568681575.3,286046996.2,N
1568681595.2,286046995.9,N
1568681615.0,286046997.3,N
1568681615.9,286046997.3,N
1568681635.7,286046997.0,N
1568681655.6,286046996.8,N
1568681675.4,286046997.5,N
1568681695.3,286046999.5,N
1568681715.1,286046996.6,N
1568681716.0,286046996.6,N
1568681735.8,286046997.6,N
1568681755.7,286046997.5,N
1568681775.5,286046994.9,Y
1568681795.3,286047000.8,P
1568681815.2,286046999.7,N
1568681835.0,286046999.8,N
1568681835.9,286046999.8,N
1568681855.8,286047000.0,N
1568681875.6,286047002.2,N
1568681895.4,286047002.8,N
1568681915.3,286046998.2,N
1568681935.1,286046998.5,N
1568681955.9,286046999.4,N
1568681975.7,286046998.8,N
1568681995.5,286046998.4,N
